,,,PA_Meas_PMT16A,,PR_Meas_QMR101_102,,RH_Meas_QMH101,,SR_Meas_QMS101,,TA_Meas_QMH101,,GenWind,,GenWind,
date,time,status,PA,status,PR,status,RH,status,SR,status,TA,status,DirAvg,status,SpdAvg,
2008-11-10, 00:00:04,VALID,1010.36,VALID,0,VALID,95.5126,VALID,0,VALID,23.1679,VALID,68,VALID,0.05625,
2008-11-10, 00:01:04,VALID,1010.39,VALID,0,VALID,95.5354,VALID,0,VALID,23.1467,VALID,325,VALID,0.70625,
2008-11-10, 00:02:04,VALID,1010.45,VALID,0,VALID,95.5202,VALID,0,VALID,23.1874,VALID,300,VALID,0.990234,
2008-11-10, 00:03:04,VALID,1010.55,VALID,0,VALID,95.5278,VALID,0,VALID,23.2069,VALID,305,VALID,1.51094,
2008-11-10, 00:04:04,VALID,1010.62,VALID,0,VALID,95.5202,VALID,0,VALID,23.2264,VALID,311,VALID,1.61836,
2008-11-10, 00:05:04,VALID,1010.63,VALID,0,VALID,95.5354,VALID,0,VALID,23.2654,VALID,349,VALID,1.59648,
2008-11-10, 00:06:04,VALID,1010.64,VALID,0,VALID,95.5431,VALID,0,VALID,23.2636,VALID,316,VALID,1.17734,
2008-11-10, 00:07:04,VALID,1010.64,VALID,0,VALID,95.5507,VALID,0,VALID,23.2636,VALID,6,VALID,0.801953,
2008-11-10, 00:08:04,VALID,1010.59,VALID,0,VALID,95.5507,VALID,0,VALID,23.3238,VALID,310,VALID,2.7875,
2008-11-10, 00:09:04,VALID,1010.55,VALID,0,VALID,95.5583,VALID,0,VALID,23.3628,VALID,311,VALID,1.47344,
2008-11-10, 00:10:04,VALID,1010.59,VALID,0,VALID,95.5507,VALID,0,VALID,23.4017,VALID,332,VALID,1.87812,
2008-11-10, 00:11:04,VALID,1010.56,VALID,0,VALID,95.5354,VALID,0,VALID,23.4212,VALID,324,VALID,1.52266,
2008-11-10, 00:12:04,VALID,1010.52,VALID,0,VALID,95.5659,VALID,0,VALID,23.4407,VALID,8,VALID,0.962891,
2008-11-10, 00:13:04,VALID,1010.49,VALID,0,VALID,95.5583,VALID,0,VALID,23.462,VALID,312,VALID,0.907031,
2008-11-10, 00:14:04,VALID,1010.45,VALID,0,VALID,95.5659,VALID,0,VALID,23.4815,VALID,333,VALID,0.929297,
2008-11-10, 00:15:04,VALID,1010.39,VALID,0,VALID,95.5583,VALID,0,VALID,23.4797,VALID,278,VALID,0.772266,
2008-11-10, 00:16:04,VALID,1010.31,VALID,0,VALID,95.5812,VALID,0,VALID,23.4992,VALID,304,VALID,0.653516,
2008-11-10, 00:17:04,VALID,1010.23,VALID,0,VALID,95.5812,VALID,0,VALID,23.5381,VALID,49,VALID,1.41562,
2008-11-10, 00:18:04,VALID,1010.17,VALID,0,VALID,95.5736,VALID,0,VALID,23.5966,VALID,337,VALID,1.53437,
2008-11-10, 00:19:04,VALID,1010.19,VALID,0,VALID,95.5964,VALID,0,VALID,23.5771,VALID,27,VALID,1.45898,
2008-11-10, 00:20:04,VALID,1010.16,VALID,0,VALID,95.5964,VALID,0,VALID,23.6161,VALID,293,VALID,0.416797,
2008-11-10, 00:21:04,VALID,1010.18,VALID,0,VALID,95.5964,VALID,0,VALID,23.5966,VALID,311,VALID,0.826953,
2008-11-10, 00:22:04,VALID,1010.15,VALID,0,VALID,95.6041,VALID,0,VALID,23.6161,VALID,313,VALID,1.03125,
2008-11-10, 00:23:04,VALID,1010.17,VALID,0,VALID,95.5888,VALID,0,VALID,23.6356,VALID,41,VALID,0.395312,
2008-11-10, 00:24:04,VALID,1010.15,VALID,0,VALID,95.6041,VALID,0,VALID,23.6356,VALID,343,VALID,0.276953,
2008-11-10, 00:25:04,VALID,1010.13,VALID,0,VALID,95.5964,VALID,0,VALID,23.655,VALID,326,VALID,0.710156,
2008-11-10, 00:26:04,VALID,1010.11,VALID,0,VALID,95.5812,VALID,0,VALID,23.655,VALID,71,VALID,0.269531,
2008-11-10, 00:27:04,VALID,1010.11,VALID,0,VALID,95.5964,VALID,0,VALID,23.655,VALID,96,VALID,0.771875,
2008-11-10, 00:28:04,VALID,1010.11,VALID,0,VALID,95.6041,VALID,0,VALID,23.655,VALID,96,VALID,0.701953,
2008-11-10, 00:29:04,VALID,1010.1,VALID,0,VALID,95.6117,VALID,0,VALID,23.6745,VALID,93,VALID,0.696875,
2008-11-10, 00:30:04,VALID,1010.11,VALID,0,VALID,95.5964,VALID,0,VALID,23.655,VALID,70,VALID,0.578125,
2008-11-10, 00:31:04,VALID,1010.08,VALID,0,VALID,95.5888,VALID,0,VALID,23.6745,VALID,89,VALID,0.733594,
2008-11-10, 00:32:04,VALID,1010.08,VALID,0,VALID,95.5888,VALID,0,VALID,23.694,VALID,92,VALID,0.551172,
2008-11-10, 00:33:04,VALID,1010.08,VALID,0,VALID,95.6041,VALID,0,VALID,23.694,VALID,47,VALID,0.703516,
2008-11-10, 00:34:04,VALID,1010.07,VALID,0,VALID,95.5888,VALID,0,VALID,23.694,VALID,4,VALID,0.49375,
2008-11-10, 00:35:04,VALID,1010.01,VALID,0,VALID,95.5964,VALID,0,VALID,23.694,VALID,17,VALID,0.35,
2008-11-10, 00:36:04,VALID,1010.01,VALID,0,VALID,95.5964,VALID,0,VALID,23.694,VALID,39,VALID,0,
2008-11-10, 00:37:04,VALID,1010,VALID,0,VALID,95.5812,VALID,0,VALID,23.6745,VALID,51,VALID,0.560938,
2008-11-10, 00:38:04,VALID,1010.01,VALID,0,VALID,95.5888,VALID,0,VALID,23.6745,VALID,45,VALID,0.324219,
2008-11-10, 00:39:04,VALID,1009.98,VALID,0,VALID,95.5736,VALID,0,VALID,23.6745,VALID,45,VALID,0.0503906,
2008-11-10, 00:40:04,VALID,1009.99,VALID,0,VALID,95.5736,VALID,0,VALID,23.694,VALID,45,VALID,0,
2008-11-10, 00:41:04,VALID,1009.99,VALID,0,VALID,95.5812,VALID,0,VALID,23.6745,VALID,45,VALID,0.217578,
2008-11-10, 00:42:04,VALID,1009.97,VALID,0,VALID,95.5812,VALID,0,VALID,23.6745,VALID,48,VALID,0.364453,
2008-11-10, 00:43:04,VALID,1009.96,VALID,0,VALID,95.5812,VALID,0,VALID,23.6745,VALID,76,VALID,0.377344,
2008-11-10, 00:44:04,VALID,1009.96,VALID,0,VALID,95.5888,VALID,0,VALID,23.6745,VALID,91,VALID,0.383203,
2008-11-10, 00:45:04,VALID,1009.97,VALID,0,VALID,95.5659,VALID,0,VALID,23.694,VALID,94,VALID,0.348047,
2008-11-10, 00:46:04,VALID,1009.98,VALID,0,VALID,95.5812,VALID,0,VALID,23.6745,VALID,93,VALID,0.214062,
2008-11-10, 00:47:04,VALID,1009.99,VALID,0,VALID,95.5736,VALID,0,VALID,23.7543,VALID,39,VALID,0.591016,
2008-11-10, 00:48:04,VALID,1009.97,VALID,0,VALID,95.5583,VALID,0,VALID,23.694,VALID,20,VALID,0.378516,
2008-11-10, 00:49:04,VALID,1009.92,VALID,0,VALID,95.5659,VALID,0,VALID,23.7135,VALID,11,VALID,0.371875,
2008-11-10, 00:50:04,VALID,1009.91,VALID,0,VALID,95.5659,VALID,0,VALID,23.694,VALID,9,VALID,0.352734,
2008-11-10, 00:51:04,VALID,1009.9,VALID,0,VALID,95.5583,VALID,0,VALID,23.694,VALID,54,VALID,0.658203,
2008-11-10, 00:52:04,VALID,1009.87,VALID,0,VALID,95.5354,VALID,0,VALID,23.694,VALID,54,VALID,0.236719,
2008-11-10, 00:53:04,VALID,1009.89,VALID,0,VALID,95.5507,VALID,0,VALID,23.694,VALID,64,VALID,0.430078,
2008-11-10, 00:54:04,VALID,1009.86,VALID,0,VALID,95.5354,VALID,0,VALID,23.6745,VALID,75,VALID,0.770312,
2008-11-10, 00:55:04,VALID,1009.87,VALID,0,VALID,95.5126,VALID,0,VALID,23.6745,VALID,71,VALID,0.228906,
2008-11-10, 00:56:04,VALID,1009.85,VALID,0,VALID,95.5583,VALID,0,VALID,23.694,VALID,53,VALID,0.304688,
2008-11-10, 00:57:04,VALID,1009.84,VALID,0,VALID,95.4897,VALID,0,VALID,23.6161,VALID,32,VALID,1.87773,
2008-11-10, 00:58:04,VALID,1009.86,VALID,0,VALID,95.4744,VALID,0,VALID,23.6356,VALID,320,VALID,1.27227,
2008-11-10, 00:59:04,VALID,1009.84,VALID,0,VALID,95.4287,VALID,0,VALID,23.6745,VALID,1,VALID,0.823047,
2008-11-10, 01:00:04,VALID,1009.83,VALID,0,VALID,95.3982,VALID,0,VALID,23.6745,VALID,323,VALID,0.701953,
2008-11-10, 01:01:04,VALID,1009.78,VALID,0,VALID,95.3982,VALID,0,VALID,23.694,VALID,335,VALID,0.58125,
2008-11-10, 01:02:04,VALID,1009.77,VALID,0,VALID,95.3067,VALID,0,VALID,23.6356,VALID,353,VALID,0.798437,
2008-11-10, 01:03:04,VALID,1009.73,VALID,0,VALID,95.2914,VALID,0,VALID,23.6745,VALID,337,VALID,0.246875,
2008-11-10, 01:04:04,VALID,1009.72,VALID,0,VALID,95.238,VALID,0,VALID,23.6745,VALID,14,VALID,0.370703,
2008-11-10, 01:05:04,VALID,1009.74,VALID,0,VALID,95.2075,VALID,0,VALID,23.655,VALID,359,VALID,0.628516,
2008-11-10, 01:06:04,VALID,1009.69,VALID,0,VALID,95.1618,VALID,0,VALID,23.6356,VALID,309,VALID,0.599609,
2008-11-10, 01:07:04,VALID,1009.69,VALID,0,VALID,95.1084,VALID,0,VALID,23.6161,VALID,315,VALID,0.346094,
2008-11-10, 01:08:04,VALID,1009.72,VALID,0,VALID,95.0474,VALID,0,VALID,23.5966,VALID,308,VALID,0.580078,
2008-11-10, 01:09:04,VALID,1009.69,VALID,0,VALID,95.0474,VALID,0,VALID,23.6568,VALID,300,VALID,0.346484,
2008-11-10, 01:10:04,VALID,1009.7,VALID,0,VALID,94.9864,VALID,0,VALID,23.5948,VALID,303,VALID,0.267578,
2008-11-10, 01:11:04,VALID,1009.7,VALID,0,VALID,94.9178,VALID,0,VALID,23.5966,VALID,301,VALID,0.182812,
2008-11-10, 01:12:04,VALID,1009.71,VALID,0,VALID,94.8644,VALID,0,VALID,23.5966,VALID,294,VALID,0.250391,
2008-11-10, 01:13:04,VALID,1009.72,VALID,0,VALID,94.811,VALID,0,VALID,23.6161,VALID,293,VALID,0.00234375,
2008-11-10, 01:14:04,VALID,1009.7,VALID,0,VALID,94.7271,VALID,0,VALID,23.5966,VALID,240,VALID,0.754687,
2008-11-10, 01:15:04,VALID,1009.73,VALID,0,VALID,94.628,VALID,0,VALID,23.5966,VALID,242,VALID,0.549609,
2008-11-10, 01:16:04,VALID,1009.73,VALID,0,VALID,94.5822,VALID,0,VALID,23.6356,VALID,241,VALID,0.378516,
2008-11-10, 01:17:04,VALID,1009.75,VALID,0,VALID,94.5212,VALID,0,VALID,23.6161,VALID,228,VALID,0.544141,
2008-11-10, 01:18:04,VALID,1009.74,VALID,0,VALID,94.3611,VALID,0,VALID,23.6161,VALID,223,VALID,0.394531,
2008-11-10, 01:19:04,VALID,1009.73,VALID,0,VALID,94.2848,VALID,0,VALID,23.6161,VALID,223,VALID,0.324219,
2008-11-10, 01:20:04,VALID,1009.74,VALID,0,VALID,94.1781,VALID,0,VALID,23.6161,VALID,216,VALID,0.437109,
2008-11-10, 01:21:04,VALID,1009.77,VALID,0,VALID,94.1171,VALID,0,VALID,23.5948,VALID,200,VALID,0.368359,
2008-11-10, 01:22:04,VALID,1009.76,VALID,0,VALID,94.1247,VALID,0,VALID,23.5966,VALID,200,VALID,0.339063,
2008-11-10, 01:23:04,VALID,1009.79,VALID,0,VALID,94.1323,VALID,0,VALID,23.6161,VALID,200,VALID,0.445703,
2008-11-10, 01:24:04,VALID,1009.78,VALID,0,VALID,94.1857,VALID,0,VALID,23.6161,VALID,199,VALID,0.517578,
2008-11-10, 01:25:04,VALID,1009.81,VALID,0,VALID,94.2162,VALID,0,VALID,23.6161,VALID,199,VALID,0.615234,
2008-11-10, 01:26:04,VALID,1009.83,VALID,0,VALID,94.2848,VALID,0,VALID,23.5966,VALID,200,VALID,0.611719,
2008-11-10, 01:27:04,VALID,1009.83,VALID,0,VALID,94.2696,VALID,0,VALID,23.5966,VALID,199,VALID,0.866016,
2008-11-10, 01:28:04,VALID,1009.82,VALID,0,VALID,94.2848,VALID,0,VALID,23.5966,VALID,194,VALID,0.778906,
2008-11-10, 01:29:04,VALID,1009.84,VALID,0,VALID,94.2467,VALID,0,VALID,23.5966,VALID,196,VALID,0.789063,
2008-11-10, 01:30:04,VALID,1009.79,VALID,0,VALID,94.2696,VALID,0,VALID,23.5771,VALID,192,VALID,0.392969,
2008-11-10, 01:31:04,VALID,1009.8,VALID,0,VALID,94.3001,VALID,0,VALID,23.5576,VALID,194,VALID,0.244922,
2008-11-10, 01:32:04,VALID,1009.77,VALID,0,VALID,94.3229,VALID,0,VALID,23.5576,VALID,194,VALID,0.435937,
2008-11-10, 01:33:04,VALID,1009.79,VALID,0,VALID,94.2924,VALID,0,VALID,23.5576,VALID,220,VALID,0.372656,
2008-11-10, 01:34:04,VALID,1009.75,VALID,0,VALID,94.2314,VALID,0,VALID,23.5186,VALID,228,VALID,0.557031,
2008-11-10, 01:35:04,VALID,1009.72,VALID,0,VALID,94.1552,VALID,0,VALID,23.5169,VALID,233,VALID,0.364844,
2008-11-10, 01:36:04,VALID,1009.72,VALID,0,VALID,94.0942,VALID,0,VALID,23.5576,VALID,233,VALID,0.380078,
2008-11-10, 01:37:04,VALID,1009.72,VALID,0,VALID,94.0637,VALID,0,VALID,23.5363,VALID,233,VALID,0.0546875,
2008-11-10, 01:38:04,VALID,1009.65,VALID,0,VALID,94.0408,VALID,0,VALID,23.5576,VALID,238,VALID,0,
2008-11-10, 01:39:04,VALID,1009.62,VALID,0,VALID,94.0408,VALID,0,VALID,23.5576,VALID,238,VALID,0.00351562,
2008-11-10, 01:40:04,VALID,1009.58,VALID,0,VALID,94.0332,VALID,0,VALID,23.5169,VALID,209,VALID,0.510547,
2008-11-10, 01:41:04,VALID,1009.6,VALID,0,VALID,93.995,VALID,0,VALID,23.5381,VALID,205,VALID,0.632813,
2008-11-10, 01:42:04,VALID,1009.61,VALID,0,VALID,94.0103,VALID,0,VALID,23.5381,VALID,200,VALID,0.478906,
2008-11-10, 01:43:04,VALID,1009.58,VALID,0,VALID,93.9722,VALID,0,VALID,23.5169,VALID,187,VALID,0.772266,
2008-11-10, 01:44:04,VALID,1009.62,VALID,0,VALID,93.9645,VALID,0,VALID,23.4974,VALID,187,VALID,0.686328,
2008-11-10, 01:45:04,VALID,1009.59,VALID,0,VALID,93.8502,VALID,0.105969,VALID,23.5381,VALID,193,VALID,1.02461,
2008-11-10, 01:46:04,VALID,1009.59,VALID,0,VALID,93.7434,VALID,0,VALID,23.5381,VALID,196,VALID,0.905859,
2008-11-10, 01:47:04,VALID,1009.58,VALID,0,VALID,93.6976,VALID,0,VALID,23.5381,VALID,199,VALID,1.11055,
2008-11-10, 01:48:04,VALID,1009.57,VALID,0,VALID,93.6671,VALID,0,VALID,23.5381,VALID,194,VALID,0.761328,
2008-11-10, 01:49:04,VALID,1009.57,VALID,0,VALID,93.5985,VALID,0,VALID,23.5381,VALID,196,VALID,1.01836,
2008-11-10, 01:50:04,VALID,1009.55,VALID,0,VALID,93.4689,VALID,0,VALID,23.4992,VALID,194,VALID,1.14258,
2008-11-10, 01:51:04,VALID,1009.54,VALID,0,VALID,93.4612,VALID,0,VALID,23.5576,VALID,202,VALID,0.903125,
2008-11-10, 01:52:04,VALID,1009.51,VALID,0,VALID,93.4155,VALID,0,VALID,23.5381,VALID,193,VALID,0.489844,
2008-11-10, 01:53:04,VALID,1009.52,VALID,0,VALID,93.3392,VALID,0,VALID,23.5186,VALID,194,VALID,0.404297,
2008-11-10, 01:54:04,VALID,1009.51,VALID,0,VALID,93.3011,VALID,0,VALID,23.5381,VALID,194,VALID,0.360938,
2008-11-10, 01:55:04,VALID,1009.49,VALID,0,VALID,93.3316,VALID,0,VALID,23.5186,VALID,194,VALID,0.113281,
2008-11-10, 01:56:04,VALID,1009.46,VALID,0,VALID,93.3926,VALID,0,VALID,23.5381,VALID,194,VALID,0.239453,
2008-11-10, 01:57:04,VALID,1009.5,VALID,0,VALID,93.4536,VALID,0,VALID,23.5594,VALID,194,VALID,0.285547,
2008-11-10, 01:58:04,VALID,1009.47,VALID,0,VALID,93.446,VALID,0,VALID,23.5576,VALID,194,VALID,0.346875,
2008-11-10, 01:59:04,VALID,1009.47,VALID,0,VALID,93.2935,VALID,0,VALID,23.5381,VALID,194,VALID,0.441406,
2008-11-10, 02:00:04,VALID,1009.49,VALID,0,VALID,93.202,VALID,0,VALID,23.5576,VALID,194,VALID,0.303906,
2008-11-10, 02:01:04,VALID,1009.47,VALID,0,VALID,93.2096,VALID,0,VALID,23.5363,VALID,194,VALID,0.00585938,
2008-11-10, 02:02:04,VALID,1009.44,VALID,0,VALID,93.3926,VALID,0,VALID,23.5966,VALID,194,VALID,0,
2008-11-10, 02:03:04,VALID,1009.45,VALID,0,VALID,93.4689,VALID,0,VALID,23.6161,VALID,194,VALID,0,
2008-11-10, 02:04:04,VALID,1009.42,VALID,0,VALID,93.4002,VALID,0,VALID,23.5966,VALID,192,VALID,0,
2008-11-10, 02:05:04,VALID,1009.42,VALID,0,VALID,93.3163,VALID,0,VALID,23.6161,VALID,191,VALID,0,
2008-11-10, 02:06:04,VALID,1009.4,VALID,0,VALID,93.446,VALID,0,VALID,23.6356,VALID,48,VALID,0.594531,
2008-11-10, 02:07:04,VALID,1009.4,VALID,0,VALID,93.4765,VALID,0,VALID,23.5966,VALID,48,VALID,0.423047,
2008-11-10, 02:08:04,VALID,1009.42,VALID,0,VALID,93.629,VALID,0,VALID,23.5966,VALID,48,VALID,0.364062,
2008-11-10, 02:09:04,VALID,1009.39,VALID,0,VALID,93.8273,VALID,0,VALID,23.5771,VALID,48,VALID,0.405859,
2008-11-10, 02:10:04,VALID,1009.4,VALID,0,VALID,93.9569,VALID,0,VALID,23.5558,VALID,48,VALID,0.439453,
2008-11-10, 02:11:04,VALID,1009.41,VALID,0,VALID,94.0408,VALID,0,VALID,23.5381,VALID,102,VALID,0.649219,
2008-11-10, 02:12:04,VALID,1009.4,VALID,0,VALID,94.1094,VALID,0,VALID,23.5771,VALID,125,VALID,0.591797,
2008-11-10, 02:13:04,VALID,1009.37,VALID,0,VALID,94.1018,VALID,0,VALID,23.5753,VALID,127,VALID,1.16875,
2008-11-10, 02:14:04,VALID,1009.36,VALID,0,VALID,93.9188,VALID,0,VALID,23.5966,VALID,123,VALID,1.20938,
2008-11-10, 02:15:04,VALID,1009.34,VALID,0,VALID,93.7815,VALID,0,VALID,23.5948,VALID,143,VALID,1.06445,
2008-11-10, 02:16:04,VALID,1009.36,VALID,0,VALID,93.6061,VALID,0,VALID,23.655,VALID,154,VALID,0.991797,
2008-11-10, 02:17:04,VALID,1009.35,VALID,0,VALID,93.4079,VALID,0,VALID,23.6356,VALID,153,VALID,0.834766,
2008-11-10, 02:18:04,VALID,1009.33,VALID,0,VALID,93.3163,VALID,0,VALID,23.6745,VALID,160,VALID,0.576953,
2008-11-10, 02:19:04,VALID,1009.33,VALID,0,VALID,93.2782,VALID,0,VALID,23.655,VALID,162,VALID,0.737891,
2008-11-10, 02:20:04,VALID,1009.34,VALID,0,VALID,93.324,VALID,0,VALID,23.655,VALID,146,VALID,0.939844,
2008-11-10, 02:21:04,VALID,1009.31,VALID,0,VALID,93.385,VALID,0,VALID,23.6338,VALID,154,VALID,0.726953,
2008-11-10, 02:22:04,VALID,1009.3,VALID,0,VALID,93.446,VALID,0,VALID,23.655,VALID,132,VALID,0.821094,
2008-11-10, 02:23:04,VALID,1009.29,VALID,0,VALID,93.4841,VALID,0,VALID,23.694,VALID,127,VALID,0.926953,
2008-11-10, 02:24:04,VALID,1009.27,VALID,0,VALID,93.5146,VALID,0,VALID,23.6356,VALID,155,VALID,0.713672,
2008-11-10, 02:25:04,VALID,1009.27,VALID,0,VALID,93.5375,VALID,0,VALID,23.6161,VALID,157,VALID,0.856641,
2008-11-10, 02:26:04,VALID,1009.24,VALID,0,VALID,93.507,VALID,0,VALID,23.6161,VALID,152,VALID,1.36836,
2008-11-10, 02:27:04,VALID,1009.23,VALID,0,VALID,93.4841,VALID,0,VALID,23.6356,VALID,139,VALID,0.932031,
2008-11-10, 02:28:04,VALID,1009.19,VALID,0,VALID,93.5222,VALID,0,VALID,23.6356,VALID,134,VALID,0.800391,
2008-11-10, 02:29:04,VALID,1009.18,VALID,0,VALID,93.5909,VALID,0,VALID,23.6356,VALID,128,VALID,0.912891,
2008-11-10, 02:30:04,VALID,1009.15,VALID,0,VALID,93.5604,VALID,0,VALID,23.5966,VALID,124,VALID,1.49883,
2008-11-10, 02:31:04,VALID,1009.16,VALID,0,VALID,93.4841,VALID,0,VALID,23.5966,VALID,124,VALID,1.12695,
2008-11-10, 02:32:04,VALID,1009.12,VALID,0,VALID,93.4765,VALID,0,VALID,23.6356,VALID,122,VALID,1.51445,
2008-11-10, 02:33:04,VALID,1009.1,VALID,0,VALID,93.3392,VALID,0,VALID,23.655,VALID,132,VALID,1.81953,
2008-11-10, 02:34:04,VALID,1009.1,VALID,0,VALID,93.3011,VALID,0,VALID,23.6356,VALID,129,VALID,1.43125,
2008-11-10, 02:35:04,VALID,1009.1,VALID,0,VALID,93.3773,VALID,0,VALID,23.6356,VALID,130,VALID,1.20039,
2008-11-10, 02:36:04,VALID,1009.09,VALID,0,VALID,93.4155,VALID,0,VALID,23.6356,VALID,127,VALID,1.33047,
2008-11-10, 02:37:04,VALID,1009.07,VALID,0,VALID,93.3773,VALID,0,VALID,23.6161,VALID,132,VALID,1.66055,
2008-11-10, 02:38:04,VALID,1009.06,VALID,0,VALID,93.3545,VALID,0,VALID,23.6161,VALID,110,VALID,1.60117,
2008-11-10, 02:39:04,VALID,1009.06,VALID,0,VALID,93.3545,VALID,0,VALID,23.5966,VALID,124,VALID,1.58594,
2008-11-10, 02:40:04,VALID,1009.04,VALID,0,VALID,93.3697,VALID,0,VALID,23.6161,VALID,124,VALID,1.54297,
2008-11-10, 02:41:04,VALID,1009.02,VALID,0,VALID,93.2935,VALID,0,VALID,23.5966,VALID,127,VALID,1.38633,
2008-11-10, 02:42:04,VALID,1009,VALID,0,VALID,93.2935,VALID,0,VALID,23.5966,VALID,105,VALID,1.51016,
2008-11-10, 02:43:04,VALID,1009,VALID,0,VALID,93.3011,VALID,0,VALID,23.6161,VALID,110,VALID,0.907422,
2008-11-10, 02:44:04,VALID,1008.98,VALID,0,VALID,93.3011,VALID,0,VALID,23.6161,VALID,120,VALID,1.63945,
2008-11-10, 02:45:04,VALID,1008.97,VALID,0,VALID,93.2782,VALID,0,VALID,23.6161,VALID,102,VALID,1.01055,
2008-11-10, 02:46:04,VALID,1008.97,VALID,0,VALID,93.2096,VALID,0,VALID,23.5966,VALID,117,VALID,1.08672,
2008-11-10, 02:47:04,VALID,1008.96,VALID,0,VALID,93.2782,VALID,0,VALID,23.6179,VALID,95,VALID,0.914063,
2008-11-10, 02:48:04,VALID,1008.98,VALID,0,VALID,93.3545,VALID,0,VALID,23.6161,VALID,121,VALID,0.924219,
2008-11-10, 02:49:04,VALID,1008.95,VALID,0,VALID,93.3545,VALID,0,VALID,23.5966,VALID,127,VALID,1.0918,
2008-11-10, 02:50:04,VALID,1008.95,VALID,0,VALID,93.4536,VALID,0,VALID,23.5966,VALID,132,VALID,0.941016,
2008-11-10, 02:51:04,VALID,1008.96,VALID,0,VALID,93.4841,VALID,0,VALID,23.5984,VALID,127,VALID,0.894141,
2008-11-10, 02:52:04,VALID,1008.96,VALID,0,VALID,93.4841,VALID,0,VALID,23.5771,VALID,115,VALID,1.31914,
2008-11-10, 02:53:04,VALID,1008.97,VALID,0,VALID,93.4765,VALID,0,VALID,23.5576,VALID,127,VALID,0.973437,
2008-11-10, 02:54:04,VALID,1008.98,VALID,0,VALID,93.5222,VALID,0,VALID,23.5984,VALID,111,VALID,0.770312,
2008-11-10, 02:55:04,VALID,1009,VALID,0,VALID,93.5832,VALID,0,VALID,23.5789,VALID,113,VALID,1.15117,
2008-11-10, 02:56:04,VALID,1009.03,VALID,0,VALID,93.6214,VALID,0,VALID,23.5771,VALID,139,VALID,1.25273,
2008-11-10, 02:57:04,VALID,1009.02,VALID,0,VALID,93.6976,VALID,0,VALID,23.5576,VALID,122,VALID,0.860937,
2008-11-10, 02:58:04,VALID,1009.05,VALID,0,VALID,93.7358,VALID,0,VALID,23.5594,VALID,109,VALID,1.62891,
2008-11-10, 02:59:04,VALID,1009.04,VALID,0,VALID,93.7739,VALID,0,VALID,23.5381,VALID,129,VALID,1.27539,
2008-11-10, 03:00:04,VALID,1009,VALID,0,VALID,93.7968,VALID,0,VALID,23.5381,VALID,100,VALID,1.41016,
2008-11-10, 03:01:04,VALID,1008.99,VALID,0,VALID,93.8502,VALID,0,VALID,23.5186,VALID,103,VALID,1.3207,
2008-11-10, 03:02:04,VALID,1009,VALID,0,VALID,93.8578,VALID,0,VALID,23.5186,VALID,93,VALID,1.60859,
2008-11-10, 03:03:04,VALID,1009.01,VALID,0,VALID,93.8578,VALID,0,VALID,23.5186,VALID,90,VALID,1.43555,
2008-11-10, 03:04:04,VALID,1008.98,VALID,0,VALID,93.9188,VALID,0,VALID,23.4992,VALID,109,VALID,0.655859,
2008-11-10, 03:05:04,VALID,1009.01,VALID,0,VALID,93.9417,VALID,0,VALID,23.4797,VALID,116,VALID,1.10664,
2008-11-10, 03:06:04,VALID,1009,VALID,0,VALID,93.9569,VALID,0,VALID,23.4797,VALID,103,VALID,0.667969,
2008-11-10, 03:07:04,VALID,1009,VALID,0,VALID,93.9417,VALID,0,VALID,23.4797,VALID,108,VALID,1.23359,
2008-11-10, 03:08:04,VALID,1008.97,VALID,0,VALID,93.934,VALID,0,VALID,23.5009,VALID,100,VALID,1.08633,
2008-11-10, 03:09:04,VALID,1008.99,VALID,0,VALID,93.8883,VALID,0,VALID,23.4797,VALID,115,VALID,0.934766,
2008-11-10, 03:10:04,VALID,1008.96,VALID,0,VALID,93.873,VALID,0,VALID,23.4992,VALID,111,VALID,0.675,
2008-11-10, 03:11:04,VALID,1008.95,VALID,0,VALID,93.8883,VALID,0,VALID,23.4992,VALID,104,VALID,0.367188,
2008-11-10, 03:12:04,VALID,1008.94,VALID,0,VALID,93.9112,VALID,0,VALID,23.4584,VALID,117,VALID,0.635938,
2008-11-10, 03:13:04,VALID,1008.92,VALID,0,VALID,93.9417,VALID,0,VALID,23.4992,VALID,98,VALID,0.672266,
2008-11-10, 03:14:05,VALID,1008.86,VALID,0,VALID,93.9112,VALID,0,VALID,23.4602,VALID,115,VALID,1.13672,
2008-11-10, 03:15:05,VALID,1008.89,VALID,0,VALID,93.8578,VALID,0,VALID,23.4602,VALID,114,VALID,0.793359,
2008-11-10, 03:16:05,VALID,1008.86,VALID,0,VALID,93.8502,VALID,0,VALID,23.4602,VALID,115,VALID,0.43125,
2008-11-10, 03:17:05,VALID,1008.87,VALID,0,VALID,93.8425,VALID,0,VALID,23.4602,VALID,97,VALID,0.644922,
2008-11-10, 03:18:05,VALID,1008.85,VALID,0,VALID,93.8349,VALID,0,VALID,23.4602,VALID,124,VALID,0.824219,
2008-11-10, 03:19:05,VALID,1008.86,VALID,0,VALID,93.812,VALID,0,VALID,23.4602,VALID,119,VALID,0.641797,
2008-11-10, 03:20:05,VALID,1008.87,VALID,0,VALID,93.8654,VALID,0,VALID,23.4797,VALID,114,VALID,0.607031,
2008-11-10, 03:21:05,VALID,1008.88,VALID,0,VALID,93.8654,VALID,0,VALID,23.4815,VALID,114,VALID,0.466406,
2008-11-10, 03:22:05,VALID,1008.91,VALID,0,VALID,93.9188,VALID,0,VALID,23.4797,VALID,103,VALID,0.917969,
2008-11-10, 03:23:05,VALID,1008.92,VALID,0,VALID,93.9264,VALID,0,VALID,23.4602,VALID,117,VALID,0.876172,
2008-11-10, 03:24:05,VALID,1008.92,VALID,0,VALID,93.9874,VALID,0,VALID,23.4602,VALID,110,VALID,0.822266,
2008-11-10, 03:25:05,VALID,1008.94,VALID,0,VALID,94.0179,VALID,0,VALID,23.4797,VALID,149,VALID,0.409375,
2008-11-10, 03:26:05,VALID,1008.99,VALID,0,VALID,94.0637,VALID,0,VALID,23.4584,VALID,127,VALID,0.784375,
2008-11-10, 03:27:05,VALID,1008.94,VALID,0,VALID,94.0713,VALID,0,VALID,23.4602,VALID,98,VALID,0.491406,
2008-11-10, 03:28:05,VALID,1008.96,VALID,0,VALID,94.0942,VALID,0,VALID,23.4602,VALID,91,VALID,0.680859,
2008-11-10, 03:29:05,VALID,1008.99,VALID,0,VALID,94.1018,VALID,0,VALID,23.4602,VALID,106,VALID,0.714453,
2008-11-10, 03:30:05,VALID,1009.04,VALID,0,VALID,94.1018,VALID,0,VALID,23.4407,VALID,89,VALID,0.657422,
2008-11-10, 03:31:05,VALID,1009.05,VALID,0,VALID,94.1247,VALID,0,VALID,23.4407,VALID,76,VALID,0.396094,
2008-11-10, 03:32:05,VALID,1009.09,VALID,0,VALID,94.1399,VALID,0,VALID,23.4407,VALID,88,VALID,0.364453,
2008-11-10, 03:33:05,VALID,1009.09,VALID,0,VALID,94.1247,VALID,0,VALID,23.423,VALID,101,VALID,0.842188,
2008-11-10, 03:34:05,VALID,1009.08,VALID,0,VALID,94.1476,VALID,0,VALID,23.4212,VALID,121,VALID,0.677734,
2008-11-10, 03:35:05,VALID,1009.11,VALID,0,VALID,94.1704,VALID,0,VALID,23.4212,VALID,47,VALID,0.476172,
2008-11-10, 03:36:05,VALID,1009.13,VALID,0,VALID,94.1628,VALID,0,VALID,23.4212,VALID,69,VALID,0.633594,
2008-11-10, 03:37:05,VALID,1009.14,VALID,0,VALID,94.1704,VALID,0,VALID,23.3823,VALID,63,VALID,0.642578,
2008-11-10, 03:38:05,VALID,1009.13,VALID,0,VALID,94.1933,VALID,0,VALID,23.3628,VALID,67,VALID,0.706641,
2008-11-10, 03:39:05,VALID,1009.16,VALID,0,VALID,94.2162,VALID,0,VALID,23.3823,VALID,73,VALID,0.871875,
2008-11-10, 03:40:05,VALID,1009.13,VALID,0,VALID,94.2238,VALID,0,VALID,23.3433,VALID,80,VALID,0.678906,
2008-11-10, 03:41:05,VALID,1009.15,VALID,0,VALID,94.2696,VALID,0,VALID,23.3628,VALID,49,VALID,0.432031,
2008-11-10, 03:42:05,VALID,1009.15,VALID,0,VALID,94.3306,VALID,0,VALID,23.4035,VALID,49,VALID,0.34375,
2008-11-10, 03:43:05,VALID,1009.14,VALID,0,VALID,94.3687,VALID,0,VALID,23.3433,VALID,80,VALID,0.39375,
2008-11-10, 03:44:05,VALID,1009.15,VALID,0,VALID,94.3916,VALID,0,VALID,23.322,VALID,73,VALID,0.526563,
2008-11-10, 03:45:05,VALID,1009.12,VALID,0,VALID,94.445,VALID,0,VALID,23.3026,VALID,88,VALID,0.993359,
2008-11-10, 03:46:05,VALID,1009.15,VALID,0,VALID,94.4526,VALID,0,VALID,23.3433,VALID,96,VALID,0.5625,